Regional Weather Roundup
Issued by NWS

Home | Current Version | Previous Version | Text Only | Print | Product List | Glossary Off
Versions: 1 2 3 4 5 6 7 8 9 10 11 12 13 14 15 16 17 18 19 20 21 22 23 24 25 26 27 28 29 30 31 32 33 34 35 36 37 38 39 40 41 42 43 44 45 46 47 48 49 50

000
ASUS43 KOAX 171110
RWRNE

WEATHER ROUNDUP FOR NEBRASKA
NATIONAL WEATHER SERVICE OMAHA NE
600 AM CDT TUE OCT 17 2017

NOTES: SATELLITE DATA IS BEING USED TO AUGMENT CLOUD COVER ABOVE
       12000 FEET.
       "FAIR" INDICATES FEW OR NO CLOUDS BELOW 12,000 FEET WITH NO
       SIGNIFICANT WEATHER AND/OR OBSTRUCTIONS TO VISIBILITY.


NEZ001>004-019>022-054>056-171200-
NEBRASKA PANHANDLE

CITY           SKY/WX    TMP DP  RH WIND       PRES   REMARKS
SCOTTSBLUFF    CLOUDY    30  24  78 W5        30.17S WCI  25
ALLIANCE       CLOUDY    26  21  81 W8        30.14F WCI  18
CHADRON        CLOUDY    33  24  69 W6        30.12S WCI  28
GORDON         FAIR      36  29  74 CALM      30.12S
KIMBALL        CLOUDY    36  20  52 W9        30.21F WCI  29
SIDNEY         CLOUDY    32  23  69 W6        30.20R WCI  26
$$

NEZ057>060-069>072-079>082-171200-
SOUTHWEST NEBRASKA

CITY           SKY/WX    TMP DP  RH WIND       PRES   REMARKS
NORTH PLATTE   CLEAR     33  30  88 NW6       30.15R WCI  28
IMPERIAL       CLOUDY    39  29  67 W3        30.17R
LEXINGTON      CLEAR     39  35  83 NW9       30.12R WCI  33
MCCOOK         CLEAR     39  34  82 W10       30.14R WCI  32
OGALLALA       CLOUDY    34  31  89 CALM      30.17S
$$

NEZ005>010-023>029-035>040-094-171200-
NORTH CENTRAL NEBRASKA

CITY           SKY/WX    TMP DP  RH WIND       PRES   REMARKS
VALENTINE      CLEAR     37  32  82 W7        30.10S WCI  32
AINSWORTH      CLEAR     42  34  72 W5        30.10S
BROKEN BOW     CLEAR     40  35  83 CALM      30.10R
O`NEILL        CLEAR     44  39  83 W6        30.08R
ORD            CLEAR     40  35  83 NW5       30.08R
THEDFORD       CLEAR     36  31  82 W5        30.14R WCI  32
$$

NEZ041-046>049-061>064-073>077-083>087-171200-
SOUTH CENTRAL NEBRASKA

CITY           SKY/WX    TMP DP  RH WIND       PRES   REMARKS
GRAND ISLAND   CLEAR     42  38  85 W6        30.09R
AURORA         CLEAR     43  38  82 SW5       30.08S
HASTINGS       CLEAR     42  36  79 SW3       30.10R
HEBRON         CLEAR     48  40  72 SW3       30.11S
HOLDREGE       CLEAR     43  36  77 NW9       30.09S
KEARNEY        CLEAR     43  36  76 W7        30.10R
YORK           CLEAR     45  39  81 S3        30.10R
$$

NEZ011>018-030>034-042>045-171200-
NORTHEAST NEBRASKA

CITY           SKY/WX    TMP DP  RH WIND       PRES   REMARKS
NORFOLK        CLEAR     42  38  85 CALM      30.06S
ALBION         CLEAR     36  34  92 CALM      30.07S
BLAIR          CLEAR     46  40  81 S5        30.10S
COLUMBUS       CLEAR     46  39  76 S6        30.09R
FREMONT        CLEAR     49  40  70 SE3       30.10R
TEKAMAH        CLEAR     44  39  82 SE5       30.09S
WAYNE          CLEAR     40  38  91 S3        30.05F
$$

NEZ050>053-065>068-078-088>093-171200-
SOUTHEAST NEBRASKA

CITY           SKY/WX    TMP DP  RH WIND       PRES   REMARKS
LINCOLN        CLEAR     48  40  73 CALM      30.11R
OMAHA EPPLEY   CLEAR     47  39  74 SE9       30.12R
BEATRICE       CLEAR     49  41  74 S7        30.12R
FALLS CITY     CLEAR     48  40  73 S8        30.14F
NEBRASKA CITY  CLEAR     47  41  80 S8        30.12S
PLATTSMOUTH    CLEAR     47  42  82 SE7       30.11S
$$

NEZ044-045-051>053-067-171200-
OMAHA AREA

CITY           SKY/WX    TMP DP  RH WIND       PRES   REMARKS
OMAHA EPPLEY   CLEAR     47  39  74 SE9       30.12R
BLAIR          CLEAR     46  40  81 S5        30.10S
FREMONT        CLEAR     49  40  70 SE3       30.10R
MILLARD        CLEAR     46  43  88 CALM      30.11R
OFFUTT AFB     CLEAR     41  38  89 E3        30.11R
PLATTSMOUTH    CLEAR     47  42  82 SE7       30.11S
WAHOO          FAIR      47  39  74 S6        30.10R
$$




USA.gov is the U.S. government's official web portal to all federal, state and local government web resources and services.